Torna al catalogo

COSMOS 422

AttivoMilitareLEO
NORAD 5238·PAYLOAD·🇷🇺 Russia

Lanciato May 22, 1971 da Plesetsk Cosmodrome

Loading…

Prossimi Passaggi (prossime 24 ore)

TLE

AggiornatoSource: Space-Track

Epoca: Sep 14, 2026, 08:07 UTC

1 05238U 71046A   26257.33828567  .00000000  00000-0  24328-4 0  9993
2 05238  74.0211  26.2180 0015155 339.0632  49.7858 13.72299513769710

Traccia COSMOS 422 in tempo reale con AllMySat

Download on the App Store